Location: Degersen
(52.2871°N, 9.5716°E)
Time: 23:57:43
(UTC+00:00)

COSMO-SKYMED 1 - Pass Details

Date: 20 January 2026
Orbit: 578 x 579 km, 97.9° (Epoch: 9 February)

Event Time Altitude Azimuth Distance (km) Brightness Sun altitude
Rises 06:08:10 0° 214° (SW) 2,789 5.8 -10.6°
Reaches altitude 10° 06:11:17 10° 240° (WSW) 1,896 4.7 -10.1°
Maximum altitude 06:13:27 14° 272° (W) 1,657 4.2 -9.8°
Enters shadow 06:14:24 13° 287° (WNW) 1,709 4.1 -9.7°
